FLOCK 1C-8 (40040 NORAD) Tracking and Keplerian Element Data

This shows tracking and keplerian element data for the satellite.

Feedback or suggestion? Click here.




ElementValue
Catalog40040
NameFLOCK 1C-8
Epoch Orbit31739
Epoch Day114.74404292
Epoch Year2020
RAAN51.395
Inclination97.9665
Eccentricity0.0014257
Argument of Perigee83.814
Mean Anonmoly276.4702
Mean Motion14.92219724
Decay Rate7.4E-06
L11 40040U 14033AG 20114.74404292 .00000740 00000-0 78287-4 0 9996
L22 40040 97.9665 51.3950 0014257 83.8140 276.4702 14.92219724317390



Live tracking and technical data element details for FLOCK 1C-8 (NORAD 40040). FLOCK 1C-8 can be tracked NOW for your location showing map with azimuth and elevation plus other details from your city location.







IsCatalogInMostPopularTable: catalog: 40040, numindb: 362
Update: records affected: 1



GetName: 40040 FLOCK 1C-8

Hit Count: updated at: Thu, 15 May 2025 10:29:14 GMT